Plattsmouth, NE

9:05 PM CDT on August 16, 2017 (GMT -0500)
Plattsmouth Municipal

Weather History for KPMV - May, 2013

Change the Weather History Date:

Friday, May 17, 2013

  Actual Average (KOFF) Record (KOFF)
Temperature  
Mean Temperature 74 °F -  
Max Temperature 85 °F 71 °F 90 °F (2012)
Min Temperature 63 °F 51 °F 35 °F (2014)
Cooling Degree Days 9    
Growing Degree Days 24 (Base 50)    
Moisture  
Dew Point 58 °F    
Average Humidity 60    
Maximum Humidity 87    
Minimum Humidity 36    
Precipitation  
Precipitation 0.00 in - - ()
Sea Level Pressure  
Sea Level Pressure 29.87 in    
Wind  
Wind Speed 7 mph (SSE)    
Max Wind Speed 10 mph    
Max Gust Speed 17 mph    
Visibility 10 miles    
Events      
Averages and records for this station are not official NWS values.
T = Trace of Precipitation, MM = Missing Value Source: NWS Daily Summary

Daily Weather History Graph

Daily Weather History Graph

Search for Another Location

Airport or City:

Trip Planner

Search our weather history database for the weather conditions in past years. The results will help you decide how hot, cold, wet, or windy it might be!

Date:

Astronomy

May. 17, 2013 Rise Set
Actual Time 6:03 AM CDT 8:36 PM CDT
Civil Twilight 5:32 AM CDT 9:08 PM CDT
Nautical Twilight 4:53 AM CDT 9:47 PM CDT
Astronomical Twilight 4:09 AM CDT 10:31 PM CDT
Moon 12:38 PM CDT 1:28 AM CDT
Length of Visible Light 15h 35m
Length of Day
14h 32m
Waxing Crescent, 45% of the Moon is Illuminated
May 17
Waxing Crescent
May 17
First Quarter
May 24
Full
May 31
Last Quarter
Jun 8
New

Hourly Weather History & Observations

Time (CDT) Temp. Heat Index Dew Point Humidity Pressure Visibility Wind Dir Wind Speed Gust Speed Precip Events Conditions
12:15 AM 69.4 °F - 57.4 °F 65% 29.84 in 10.0 mi South 6.9 mph - N/A   Clear
12:35 AM 68.4 °F - 57.2 °F 67% 29.84 in 10.0 mi South 6.9 mph - N/A   Clear
12:55 AM 68.0 °F - 57.2 °F 68% 29.83 in 10.0 mi South 6.9 mph - N/A   Clear
1:15 AM 67.1 °F - 57.2 °F 70% 29.84 in 10.0 mi South 5.8 mph - N/A   Clear
1:35 AM 66.2 °F - 57.4 °F 73% 29.84 in 10.0 mi South 6.9 mph - N/A   Clear
1:55 AM 67.3 °F - 57.7 °F 71% 29.84 in 10.0 mi SSW 5.8 mph - N/A   Clear
2:15 AM 66.6 °F - 57.6 °F 73% 29.83 in 10.0 mi SSW 5.8 mph - N/A   Clear
2:35 AM 66.6 °F - 58.1 °F 74% 29.83 in 10.0 mi South 6.9 mph - N/A   Clear
2:55 AM 65.5 °F - 58.1 °F 77% 29.83 in 10.0 mi South 5.8 mph - N/A   Clear
3:15 AM 64.8 °F - 58.6 °F 81% 29.84 in 10.0 mi SSE 4.6 mph - N/A   Clear
3:35 AM 64.8 °F - 58.8 °F 81% 29.84 in 10.0 mi SE 4.6 mph - N/A   Clear
3:55 AM 64.8 °F - 59.0 °F 82% 29.84 in 10.0 mi SE 3.5 mph - N/A   Clear
4:15 AM 64.4 °F - 59.0 °F 83% 29.85 in 10.0 mi SE 3.5 mph - N/A   Clear
4:35 AM 64.4 °F - 59.0 °F 83% 29.85 in 10.0 mi SSE 4.6 mph - N/A   Clear
4:55 AM 64.4 °F - 59.0 °F 83% 29.85 in 10.0 mi SSE 6.9 mph - N/A   Clear
5:15 AM 63.9 °F - 59.2 °F 85% 29.85 in 10.0 mi SSE 6.9 mph - N/A   Clear
5:35 AM 63.7 °F - 59.2 °F 85% 29.86 in 10.0 mi SSE 5.8 mph - N/A   Clear
5:55 AM 63.9 °F - 59.2 °F 85% 29.86 in 10.0 mi SSE 3.5 mph - N/A   Clear
6:15 AM 63.5 °F - 59.2 °F 86% 29.87 in 10.0 mi SSE 4.6 mph - N/A   Clear
6:35 AM 63.5 °F - 59.4 °F 86% 29.88 in 10.0 mi SSE 5.8 mph - N/A   Clear
7:15 AM 63.5 °F - 59.5 °F 87% 29.89 in 10.0 mi SSE 5.8 mph - N/A   Clear
7:35 AM 64.0 °F - 59.9 °F 86% 29.90 in 10.0 mi SSE 5.8 mph - N/A   Clear
7:55 AM 66.2 °F - 60.4 °F 82% 29.91 in 10.0 mi South 4.6 mph - N/A   Clear
8:15 AM 67.1 °F - 60.3 °F 79% 29.91 in 10.0 mi South 5.8 mph - N/A   Clear
8:35 AM 69.1 °F - 60.8 °F 75% 29.91 in 10.0 mi SSW 8.1 mph - N/A   Clear
8:55 AM 70.2 °F - 60.6 °F 72% 29.91 in 10.0 mi SSW 8.1 mph - N/A   Clear
9:15 AM 71.4 °F - 61.0 °F 70% 29.91 in 10.0 mi South 5.8 mph - N/A   Clear
9:35 AM 73.2 °F - 61.3 °F 66% 29.91 in 10.0 mi South 6.9 mph - N/A   Clear
9:55 AM 74.7 °F - 60.8 °F 62% 29.91 in 10.0 mi South 6.9 mph - N/A   Clear
10:15 AM 75.6 °F - 60.4 °F 59% 29.90 in 10.0 mi SSW 10.4 mph - N/A   Clear
10:35 AM 76.6 °F - 60.4 °F 57% 29.91 in 10.0 mi SW 3.5 mph - N/A   Clear
10:55 AM 77.2 °F - 60.1 °F 55% 29.90 in 10.0 mi SSW 3.5 mph - N/A   Clear
11:15 AM 77.7 °F - 59.5 °F 53% 29.90 in 10.0 mi SSE 3.5 mph - N/A   Scattered Clouds
11:35 AM 79.0 °F - 59.9 °F 52% 29.90 in 10.0 mi SSE 6.9 mph - N/A   Mostly Cloudy
11:55 AM 79.2 °F - 59.0 °F 50% 29.90 in 10.0 mi SSE 10.4 mph - N/A   Scattered Clouds
12:15 PM 80.6 °F 81.0 °F 58.6 °F 47% 29.90 in 10.0 mi South 9.2 mph 17.3 mph N/A   Scattered Clouds
12:35 PM 81.5 °F 81.8 °F 59.2 °F 47% 29.89 in 10.0 mi SE 5.8 mph - N/A   Scattered Clouds
12:55 PM 81.5 °F 81.7 °F 58.8 °F 46% 29.89 in 10.0 mi SE 6.9 mph - N/A   Scattered Clouds
1:15 PM 81.1 °F 81.4 °F 58.5 °F 46% 29.88 in 10.0 mi SE 9.2 mph - N/A   Scattered Clouds
1:35 PM 82.9 °F 82.8 °F 59.0 °F 44% 29.88 in 10.0 mi SSE 10.4 mph - N/A   Scattered Clouds
2:15 PM 82.9 °F 82.4 °F 57.0 °F 41% 29.87 in 10.0 mi SSE 9.2 mph 17.3 mph N/A   Scattered Clouds
2:35 PM 84.0 °F 83.2 °F 56.3 °F 39% 29.87 in 10.0 mi SSE 10.4 mph - N/A   Scattered Clouds
2:55 PM 84.2 °F 83.3 °F 56.7 °F 39% 29.86 in 10.0 mi SSE 8.1 mph - N/A   Scattered Clouds
3:15 PM 84.2 °F 83.2 °F 55.8 °F 38% 29.86 in 10.0 mi SSE 5.8 mph - N/A   Scattered Clouds
3:35 PM 85.1 °F 84.1 °F 56.8 °F 38% 29.86 in 10.0 mi SE 10.4 mph - N/A   Clear
3:55 PM 84.6 °F 83.2 °F 55.0 °F 36% 29.85 in 10.0 mi SSE 6.9 mph - N/A   Scattered Clouds
4:15 PM 84.7 °F 83.7 °F 56.3 °F 38% 29.85 in 10.0 mi SSE 10.4 mph - N/A   Clear
4:35 PM 85.1 °F 84.1 °F 56.5 °F 38% 29.85 in 10.0 mi SE 9.2 mph - N/A   Scattered Clouds
4:55 PM 84.7 °F 83.6 °F 55.9 °F 37% 29.84 in 10.0 mi South 8.1 mph - N/A   Scattered Clouds
5:15 PM 84.7 °F 83.6 °F 55.6 °F 37% 29.84 in 10.0 mi SSE 8.1 mph - N/A   Clear
5:35 PM 85.1 °F 84.1 °F 56.5 °F 38% 29.84 in 10.0 mi SE 8.1 mph - N/A   Clear
5:55 PM 84.6 °F 83.5 °F 56.5 °F 38% 29.84 in 10.0 mi SE 8.1 mph - N/A   Clear
6:15 PM 84.6 °F 83.4 °F 55.8 °F 37% 29.84 in 10.0 mi SSE 6.9 mph - N/A   Clear
6:35 PM 83.8 °F 83.0 °F 56.1 °F 39% 29.84 in 10.0 mi SE 10.4 mph - N/A   Clear
6:55 PM 83.3 °F 82.6 °F 56.7 °F 40% 29.84 in 10.0 mi SE 8.1 mph 17.3 mph N/A   Clear
7:15 PM 82.6 °F 82.1 °F 56.8 °F 41% 29.84 in 10.0 mi SE 9.2 mph 17.3 mph N/A   Clear
7:35 PM 81.5 °F 81.4 °F 57.0 °F 43% 29.84 in 10.0 mi SE 9.2 mph 17.3 mph N/A   Clear
7:55 PM 80.2 °F 80.5 °F 57.4 °F 45% 29.84 in 10.0 mi SE 9.2 mph - N/A   Clear
8:15 PM 79.2 °F - 57.4 °F 47% 29.85 in 10.0 mi SE 10.4 mph - N/A   Clear
8:35 PM 77.9 °F - 57.6 °F 49% 29.85 in 10.0 mi SE 9.2 mph - N/A   Clear
8:55 PM 76.6 °F - 57.6 °F 52% 29.86 in 10.0 mi SE 5.8 mph - N/A   Clear
9:15 PM 75.6 °F - 57.6 °F 53% 29.88 in 10.0 mi SE 8.1 mph - N/A   Clear
9:35 PM 75.2 °F - 57.6 °F 54% 29.89 in 10.0 mi SE 8.1 mph - N/A   Clear
9:55 PM 74.3 °F - 57.9 °F 57% 29.89 in 10.0 mi SE 8.1 mph - N/A   Clear
10:15 PM 73.0 °F - 58.1 °F 59% 29.90 in 10.0 mi SE 8.1 mph - N/A   Clear
10:35 PM 72.1 °F - 58.1 °F 61% 29.90 in 10.0 mi SSE 8.1 mph - N/A   Clear
10:55 PM 71.2 °F - 58.3 °F 64% 29.90 in 10.0 mi SSE 6.9 mph - N/A   Clear
11:15 PM 70.5 °F - 58.3 °F 65% 29.91 in 10.0 mi SSE 6.9 mph - N/A   Clear
11:35 PM 70.0 °F - 58.1 °F 66% 29.90 in 10.0 mi SSE 8.1 mph - N/A   Clear
11:55 PM 69.8 °F - 58.3 °F 67% 29.91 in 10.0 mi SSE 8.1 mph - N/A   Clear